Orbital Elements
Epoch 2011 Dec. 25.0 TT = JDT 2455920.5
T 2011 Dec. 16.08243 TT MPC
q 2.3449181 (2000.0) P Q
z +0.0008971 Peri. 141.16198 -0.01648914 +0.93259723
+/-0.0000003 Node 124.89032 -0.99145485 +0.03141778
e 0.9978965 Incl. 26.07531 -0.12940395 -0.35954880
From 1577 observations 2011 Jan. 15-2013 Oct. 6, mean residual 0".6.
|